CW2340 Weather Reports


time (UTC)temp
C
wind
direction
speed
KPH
gust
KPH
rain 1hr
cm
rain 24hr
cm
rain mn
cm
humidity
%
barometer
mb
20260506202504 14 185 1.6 9.7 0.08 0.61 0.61 97 990.1
20260506202004 14 192 3.2 9.7 0.08 0.61 0.61 97 990.0
20260506201504 14 186 3.2 11.3 0.05 0.58 0.58 97 990.2
20260506201004 15 179 1.6 3.2 0.05 0.58 0.58 97 990.0
20260506200504 14 178 1.6 11.3 0.05 0.58 0.58 97 990.2
20260506195004 14 203 3.2 9.7 0.10 0.56 0.56 96 990.2
20260506194504 14 220 6.4 12.9 0.10 0.56 0.56 96 990.4
20260506194003 15 211 1.6 8.0 0.08 0.53 0.53 97 990.4
20260506193504 15 202 1.6 8.0 0.10 0.53 0.53 97 990.5
20260506192504 14 253 1.6 12.9 0.10 0.53 0.53 96 990.5
20260506192004 14 196 4.8 11.3 0.13 0.53 0.53 96 990.6
20260506191005 14 236 3.2 8.0 0.15 0.53 0.53 96 990.8
20260506190504 14 237 1.6 9.7 0.15 0.53 0.53 96 990.6
20260506190005 14 230 3.2 12.9 0.13 0.51 0.51 96 990.6
20260506185504 14 228 4.8 16.1 0.15 0.51 0.51 96 990.9
20260506185004 14 150 4.8 11.3 0.13 0.46 0.46 96 991.1
20260506184504 14 139 3.2 12.9 0.15 0.46 0.46 96 991.2
20260506184004 14 158 4.8 12.9 0.18 0.46 0.46 95 991.0
20260506183503 14 203 3.2 14.5 0.23 0.43 0.43 95 990.9
20260506183005 14 139 3.2 9.7 0.28 0.43 0.43 95 990.8
20260506182504 14 250 1.6 12.9 0.33 0.43 0.43 95 990.6
20260506182004 14 189 3.2 12.9 0.36 0.41 0.41 95 990.7
20260506181504 14 155 3.2 9.7 0.38 0.41 0.41 95 990.6
20260506180504 15 154 1.6 8.0 0.38 0.38 0.38 94 990.9
20260506180005 15 206 3.2 9.7 0.38 0.38 0.38 94 991.3
20260506175004 15 207 3.2 4.8 0.33 0.33 0.33 94 991.3
20260506174004 15 189 3.2 9.7 0.28 0.28 0.28 93 991.6
20260506173504 15 37 1.6 8.0 0.20 0.20 0.20 92 991.9
20260506173004 15 200 1.6 4.8 0.15 0.15 0.15 91 991.8
20260506172504 16 206 3.2 12.9 0.10 0.10 0.10 90 991.8
20260506172004 16 179 1.6 3.2 0.05 0.05 0.05 89 991.9
20260506171504 16 292 0.0 4.8 0.03 0.03 0.03 87 992.2
20260506171004 16 191 1.6 9.7 0.03 0.03 0.03 85 992.2
20260506170504 17 248 3.2 8.0 0.00 0.00 0.00 82 992.3
20260506170004 17 204 3.2 11.3 0.00 0.00 0.00 80 992.3
20260506164504 18 264 8.0 33.8 0.00 0.00 0.00 72 992.1
20260506164004 19 34 4.8 12.9 0.00 0.00 0.00 71 991.8
20260506163004 19 237 6.4 14.5 0.00 0.00 0.00 70 991.8
20260506162504 19 221 4.8 16.1 0.00 0.00 0.00 70 991.8
20260506162004 19 226 3.2 12.9 0.00 0.00 0.00 70 991.9
20260506161504 19 260 3.2 16.1 0.00 0.00 0.00 71 992.1
20260506161005 19 146 4.8 16.1 0.00 0.00 0.00 70 992.0
20260506160004 18 279 4.8 22.5 0.00 0.00 0.00 71 992.2
20260506155504 19 184 4.8 16.1 0.00 0.00 0.00 70 992.3
20260506155004 19 284 4.8 22.5 0.00 0.00 0.00 70 992.4
20260506154004 19 223 4.8 20.9 0.00 0.00 0.00 69 992.3
20260506153504 19 179 8.0 20.9 0.00 0.00 0.00 68 992.3
20260506153004 19 270 3.2 12.9 0.00 0.00 0.00 69 992.4
20260506152504 20 306 4.8 16.1 0.00 0.00 0.00 68 992.2
20260506152004 20 206 3.2 11.3 0.00 0.00 0.00 68 992.3
20260506151504 20 199 3.2 12.9 0.00 0.00 0.00 69 992.3
20260506151004 20 114 4.8 29.0 0.00 0.00 0.00 68 992.4
20260506150505 20 219 1.6 16.1 0.00 0.00 0.00 69 992.4
20260506150005 19 240 4.8 19.3 0.00 0.00 0.00 69 992.3
20260506144004 19 253 4.8 11.3 0.00 0.00 0.00 69 992.6
20260506143504 19 302 3.2 12.9 0.00 0.00 0.00 70 992.6
20260506143004 19 249 4.8 14.5 0.00 0.00 0.00 69 992.7
20260506142004 19 326 4.8 19.3 0.00 0.00 0.00 70 992.7
20260506141004 18 225 4.8 16.1 0.00 0.00 0.00 72 992.7
20260506140504 18 184 4.8 20.9 0.00 0.00 0.00 72 992.7
20260506140005 18 240 4.8 12.9 0.00 0.00 0.00 72 992.6
20260506135504 18 322 3.2 11.3 0.00 0.00 0.00 73 992.6
20260506135004 18 12 4.8 19.3 0.00 0.00 0.00 73 992.5
20260506134504 18 209 3.2 12.9 0.00 0.00 0.00 74 992.5
20260506134004 18 228 6.4 12.9 0.00 0.00 0.00 73 992.3
20260506133504 18 251 4.8 12.9 0.00 0.00 0.00 74 992.5
20260506133004 18 206 4.8 12.9 0.00 0.00 0.00 74 992.5
20260506132504 18 246 3.2 9.7 0.00 0.00 0.00 74 992.6
20260506132005 18 197 4.8 20.9 0.00 0.00 0.00 75 992.8
20260506131504 18 181 4.8 16.1 0.00 0.00 0.00 75 992.7
20260506131004 18 188 3.2 12.9 0.00 0.00 0.00 77 992.6
20260506130505 17 212 3.2 11.3 0.00 0.00 0.00 77 992.8
20260506130005 17 171 3.2 8.0 0.00 0.00 0.00 77 993.1
20260506125004 17 199 3.2 12.9 0.00 0.00 0.00 78 993.1
20260506124504 17 241 4.8 24.1 0.00 0.00 0.00 78 993.3
20260506124004 17 197 8.0 24.1 0.00 0.00 0.00 78 993.3
20260506123504 17 217 4.8 22.5 0.00 0.00 0.00 78 993.2
20260506123004 17 211 4.8 16.1 0.00 0.00 0.00 77 993.4
20260506122504 18 233 3.2 12.9 0.00 0.00 0.00 76 993.3
20260506122004 17 259 4.8 12.9 0.00 0.00 0.00 79 993.0
20260506121504 17 166 4.8 19.3 0.00 0.00 0.00 80 993.1
20260506121004 17 242 3.2 11.3 0.00 0.00 0.00 80 993.2
20260506120005 16 230 4.8 14.5 0.00 0.00 0.00 81 993.1
20260506115505 16 244 4.8 16.1 0.00 0.00 0.00 81 993.2
20260506115005 16 194 6.4 25.7 0.00 0.00 0.00 81 993.1
20260506114504 16 176 3.2 14.5 0.00 0.00 0.00 82 993.1
20260506114005 16 201 4.8 11.3 0.00 0.00 0.00 83 993.0
20260506113504 16 173 4.8 11.3 0.00 0.00 0.00 83 992.9
20260506113004 16 240 1.6 11.3 0.00 0.00 0.00 83 992.9
20260506112004 16 262 3.2 12.9 0.00 0.00 0.00 83 993.2
20260506111504 15 329 3.2 14.5 0.00 0.00 0.00 84 993.6
20260506110504 15 177 4.8 12.9 0.00 0.00 0.00 86 993.4
20260506110004 15 191 3.2 12.9 0.00 0.00 0.00 86 993.5
20260506105504 15 186 4.8 11.3 0.00 0.00 0.00 86 993.3
20260506104504 15 253 1.6 9.7 0.00 0.00 0.00 85 993.2
20260506104004 15 173 1.6 12.9 0.00 0.00 0.00 85 993.1
20260506103505 15 206 1.6 14.5 0.00 0.00 0.00 86 993.1
20260506103004 14 179 4.8 12.9 0.00 0.00 0.00 87 993.1
20260506102504 14 160 1.6 4.8 0.00 0.00 0.00 87 993.3
20260506102005 14 175 3.2 11.3 0.00 0.00 0.00 87 993.3
20260506101504 14 149 1.6 8.0 0.00 0.00 0.00 87 993.2
20260506100504 14 174 3.2 9.7 0.00 0.00 0.00 87 993.1
20260506100004 14 249 1.6 9.7 0.00 0.00 0.00 87 993.0
20260506095505 14 248 1.6 9.7 0.00 0.00 0.00 87 993.1
20260506095004 14 153 3.2 11.3 0.00 0.00 0.00 87 993.2
20260506094504 14 173 1.6 9.7 0.00 0.00 0.00 87 993.2
20260506094004 14 137 4.8 16.1 0.00 0.00 0.00 87 993.1
20260506093504 14 226 1.6 9.7 0.00 0.00 0.00 87 993.0
20260506092504 14 288 3.2 16.1 0.00 0.00 0.00 86 993.0
20260506092004 14 181 3.2 12.9 0.00 0.00 0.00 87 992.9
20260506091504 14 182 3.2 8.0 0.00 0.00 0.00 87 993.0
20260506091004 14 225 3.2 12.9 0.00 0.00 0.00 87 993.0
20260506090505 14 180 1.6 8.0 0.00 0.00 0.00 86 993.0
20260506090004 14 190 1.6 4.8 0.00 0.00 0.00 86 993.0
20260506085504 14 256 1.6 11.3 0.00 0.00 0.00 86 993.1
20260506085004 14 184 3.2 11.3 0.00 0.00 0.00 86 993.2
20260506084505 14 202 1.6 8.0 0.00 0.00 0.00 86 993.3
20260506084004 14 223 1.6 9.7 0.00 0.00 0.00 85 993.2
20260506083504 14 190 1.6 9.7 0.00 0.00 0.00 85 993.3
20260506083004 14 187 1.6 8.0 0.00 0.00 0.00 85 993.3
20260506082504 15 158 3.2 11.3 0.00 0.00 0.00 84 993.1
20260506081504 15 174 1.6 11.3 0.00 0.00 0.00 84 993.1
20260506081005 15 249 1.6 9.7 0.00 0.00 0.00 84 993.2
20260506080504 15 153 3.2 11.3 0.00 0.00 0.00 83 993.2
20260506073504 15 176 6.4 14.5 0.00 0.00 0.00 81 993.1
20260506073004 15 263 1.6 9.7 0.00 0.00 0.00 81 993.3
20260506072504 15 182 3.2 11.3 0.00 0.00 0.00 81 993.3
20260506072003 15 209 4.8 16.1 0.00 0.00 0.00 81 993.5
20260506071004 15 189 1.6 4.8 0.00 0.00 0.00 81 993.2
20260506070504 15 207 3.2 11.3 0.00 0.00 0.00 81 993.2
20260506062504 15 273 1.6 8.0 0.00 0.00 0.00 79 993.1
20260506062004 15 116 1.6 9.7 0.00 0.00 0.00 79 993.2
20260506061504 15 193 1.6 12.9 0.00 0.00 0.00 79 993.3
20260506061004 16 105 4.8 12.9 0.00 0.00 0.00 78 993.1
20260506060504 16 174 1.6 9.7 0.00 0.00 0.00 78 993.3
20260506051004 16 256 4.8 16.1 0.00 0.00 0.00 76 993.5
20260506050504 16 63 4.8 19.3 0.00 0.00 0.00 75 993.5
20260506045005 16 169 3.2 19.3 0.00 0.00 0.00 74 993.6
20260506044004 17 256 3.2 16.1 0.00 0.00 0.00 74 993.7
20260506043504 17 142 3.2 14.5 0.00 0.00 0.00 73 993.6
20260506043004 17 187 4.8 20.9 0.00 0.00 0.00 73 993.6
20260506042504 17 246 4.8 19.3 0.00 0.00 0.00 72 993.8
20260506042004 17 292 4.8 19.3 0.00 0.00 0.00 72 993.5
20260506041004 17 218 6.4 14.5 0.00 0.00 0.00 71 993.7
20260506040504 17 349 4.8 14.5 0.00 0.00 0.00 71 993.6
20260506040004 17 210 4.8 16.1 0.00 0.00 0.00 70 993.8
20260506035004 17 192 4.8 19.3 0.00 0.00 0.00 69 993.6
20260506034504 17 220 6.4 22.5 0.00 0.00 0.00 68 993.6
20260506034004 17 243 6.4 25.7 0.00 0.00 0.00 68 993.7
20260506033005 17 221 4.8 12.9 0.00 0.00 0.00 67 993.7
20260506032504 17 154 3.2 16.1 0.00 0.00 0.00 67 993.6
20260506032004 17 185 6.4 16.1 0.00 0.00 0.00 67 993.8
20260506031004 17 20 4.8 14.5 0.00 0.00 0.00 67 993.6
20260506030004 17 252 3.2 22.5 0.00 0.00 0.00 66 993.6
20260506025504 17 205 3.2 16.1 0.00 0.00 0.00 66 993.7
20260506025005 17 202 3.2 16.1 0.00 0.00 0.00 66 993.5
20260506024504 17 201 4.8 14.5 0.00 0.00 0.00 66 993.5
20260506023504 17 221 4.8 16.1 0.00 0.00 0.00 67 993.4
20260506023004 17 241 3.2 20.9 0.00 0.00 0.00 67 993.6
20260506022504 17 231 3.2 14.5 0.00 0.00 0.00 67 993.7
20260506021503 17 189 3.2 20.9 0.00 0.00 0.00 67 993.5
20260506021004 17 81 3.2 11.3 0.00 0.00 0.00 67 993.5
20260506020504 17 24 4.8 16.1 0.00 0.00 0.00 67 993.7
20260506020004 17 251 3.2 9.7 0.00 0.00 0.00 66 993.5
20260506015503 17 208 3.2 12.9 0.00 0.00 0.00 66 993.4
20260506015004 17 193 3.2 12.9 0.00 0.00 0.00 66 993.4
20260506014504 17 186 4.8 20.9 0.00 0.00 0.00 65 993.5
20260506014003 17 195 3.2 20.9 0.00 0.00 0.00 65 993.5
20260506013504 17 327 4.8 9.7 0.00 0.00 0.00 65 993.5
20260506013004 17 195 4.8 11.3 0.00 0.00 0.00 65 993.5
20260506012004 17 191 3.2 11.3 0.00 0.00 0.00 64 993.3
20260506011504 17 244 1.6 12.9 0.00 0.00 0.00 64 993.2
20260506011004 17 181 4.8 12.9 0.00 0.00 0.00 63 993.0
20260506010504 17 286 4.8 12.9 0.00 0.00 0.00 63 993.0
20260506010004 17 189 4.8 14.5 0.00 0.00 0.00 63 993.1
20260506005504 17 232 3.2 8.0 0.00 0.00 0.00 62 992.9
20260506005004 18 200 3.2 14.5 0.00 0.00 0.00 61 992.8
20260506004505 18 244 4.8 12.9 0.00 0.00 0.00 61 992.8
20260506004004 18 307 3.2 12.9 0.00 0.00 0.00 61 992.8
20260506003504 18 193 3.2 9.7 0.00 0.00 0.00 61 992.8
20260506003004 18 195 6.4 20.9 0.00 0.00 0.00 61 992.7
20260506002504 18 127 3.2 12.9 0.00 0.00 0.00 61 992.5
20260506002003 18 275 6.4 19.3 0.00 0.00 0.00 61 992.7
20260506001504 18 149 4.8 25.7 0.00 0.00 0.00 61 992.4
20260506001004 18 298 3.2 12.9 0.00 0.00 0.00 61 992.3
20260506000505 18 231 4.8 12.9 0.00 0.00 0.00 60 992.2
20260506000004 18 223 6.4 12.9 0.00 0.00 0.00 60 992.1
20260505235004 19 192 4.8 16.1 0.00 0.00 0.00 60 992.1
20260505234504 19 189 4.8 19.3 0.00 0.00 0.00 59 991.9
20260505234005 19 182 8.0 20.9 0.00 0.00 0.00 59 992.0
20260505233504 19 200 9.7 19.3 0.00 0.00 0.00 58 991.8
20260505233004 19 234 8.0 19.3 0.00 0.00 0.00 58 991.8
20260505232504 20 334 4.8 19.3 0.00 0.00 0.00 58 991.5
20260505232004 20 313 4.8 20.9 0.00 0.00 0.00 58 991.5
20260505231503 20 251 4.8 12.9 0.00 0.00 0.00 57 991.3
20260505230504 20 183 4.8 25.7 0.00 0.00 0.00 56 991.3
20260505230004 20 253 4.8 12.9 0.00 0.00 0.00 56 991.3
20260505225504 20 191 8.0 22.5 0.00 0.00 0.00 55 991.3
20260505225003 20 193 1.6 20.9 0.00 0.00 0.00 56 991.3
20260505224504 21 203 4.8 14.5 0.00 0.00 0.00 55 991.2
20260505224004 21 175 6.4 16.1 0.00 0.00 0.00 55 991.1
20260505223504 21 140 4.8 14.5 0.00 0.00 0.00 54 991.0
20260505222004 21 182 6.4 20.9 0.00 0.00 0.00 52 990.7
20260505221503 22 183 4.8 24.1 0.00 0.00 0.00 52 991.0
20260505221004 22 224 3.2 19.3 0.00 0.00 0.00 52 990.8
20260505220504 22 190 8.0 19.3 0.00 0.00 0.00 52 990.9
20260505220004 22 188 8.0 20.9 0.00 0.00 0.00 51 991.2
20260505215504 22 185 3.2 29.0 0.00 0.00 0.00 51 991.0
20260505215004 22 167 9.7 25.7 0.00 0.00 0.00 51 991.1
20260505214504 22 180 1.6 14.5 0.00 0.00 0.00 51 991.0
20260505214004 23 168 3.2 19.3 0.00 0.00 0.00 50 991.0
20260505213504 23 243 4.8 12.9 0.00 0.00 0.00 49 990.9
20260505213004 23 314 6.4 24.1 0.00 0.00 0.00 50 990.8
20260505212504 23 155 3.2 11.3 0.00 0.00 0.00 50 991.0
20260505212004 23 184 4.8 14.5 0.00 0.00 0.00 49 990.9
20260505211504 23 248 6.4 19.3 0.00 0.00 0.00 48 991.2
20260505211004 23 193 3.2 14.5 0.00 0.00 0.00 48 990.9
20260505205504 23 185 4.8 24.1 0.00 0.00 0.00 48 990.7
20260505205004 24 182 8.0 25.7 0.00 0.00 0.00 48 990.8
20260505204004 24 161 8.0 25.7 0.00 0.00 0.00 46 990.8
20260505203504 25 176 9.7 27.4 0.00 0.00 0.00 45 990.8
20260505203004 25 175 4.8 24.1 0.00 0.00 0.00 45 990.7